Regional Weather Roundup
Issued by NWS Northern Indiana

Home | Current Version | Previous Version | Text Only | Print | Product List | Glossary On
Versions: 1 2 3 4 5 6 7 8 9 10 11 12 13 14 15 16 17 18 19 20 21 22 23 24 25 26 27 28 29 30 31 32 33 34 35 36 37 38 39 40 41 42 43 44 45 46 47 48 49 50
000
ASUS43 KIWX 270510
RWRIWX

KIWX WEATHER ROUNDUP
NATIONAL WEATHER SERVICE NORTHERN INDIANA
100 AM EDT FRI MAR 27 2015

NOTE: "FAIR" INDICATES FEW OR NO CLOUDS BELOW 12,000 FEET WITH NO
SIGNIFICANT WEATHER AND/OR OBSTRUCTIONS TO VISIBILITY.

* THESE STATIONS ARE NOT UNDER NWS QUALITY CONTROL. THEY ALSO MAY NOT
  REPORT WEATHER SUCH AS PRECIPITATION OR FOG.

INZ001>027-270600-
NORTHERN INDIANA

CITY           SKY/WX    TMP DP  RH WIND       PRES   REMARKS
GARY*          CLOUDY    34  21  58 N15G21    30.07S WCI  25
VALPARAISO     FLURRIES  32  24  72 N8        30.05S WCI  25
MICHIGAN CITY* CLOUDY    32  21  64 N10       30.05S WCI  24
LAPORTE*       FLURRIES  33  26  74 N12       30.04R WCI  25
KNOX*            N/A     32  16  51 N10       30.03S WCI  24
SOUTH BEND     CLOUDY    32  24  72 NW14      30.03S WCI  22
GOSHEN         CLOUDY    32  23  69 NW14      30.00S WCI  22
MONTICELLO*    CLEAR     31  26  83 N6        30.01F WCI  25
LOGANSPORT*    CLEAR     32  27  80 N6        30.02F WCI  26
ROCHESTER*     CLOUDY    34  30  86 N7        30.02S WCI  28
WARSAW*        CLOUDY    30  27  86 NW6       30.01S WCI  24
ANGOLA*        CLOUDY    30  25  80 N8        29.97S WCI  23
FORT WAYNE     PTCLDY    31  24  75 NW6       30.01R WCI  25
HUNTINGTON*    CLEAR     31  21  68 NW5       30.00S WCI  26
PERU/GRISSOM   FAIR      31  24  75 N8        29.99S WCI  24
MARION*        CLOUDY    32  25  74 N8        30.01S WCI  25

$$
INZ028>050-270600-
CENTRAL INDIANA

CITY           SKY/WX    TMP DP  RH WIND       PRES   REMARKS
LAFAYETTE      CLEAR     31  25  78 N8        30.02S WCI  23
KOKOMO*          N/A     32  25  74 N8        30.01S WCI  25
MUNCIE*        CLOUDY    34  27  75 N6        29.99F WCI  29
INDIANAPOLIS   PTCLDY    34  26  72 N9        29.98F WCI  27

$$
MIZ043>046-050>051-056>058-064>065-071>073-077>080-270600-
SOUTHWEST LOWER MICHIGAN

CITY           SKY/WX    TMP DP  RH WIND       PRES   REMARKS
BATTLE CREEK   CLOUDY    30  22  72 NW8       29.99R WCI  22
BENTON HARBOR  CLOUDY    29  25  85 VRB7      30.04S WCI  22
COLDWATER*     CLOUDY    32  23  70 NW9       29.98R WCI  24
HILLSDALE*     CLOUDY    32  24  72 NW10      29.94S WCI  23
HOLLAND        CLOUDY    29  17  61 N10       30.06R WCI  20
GRAND RAPIDS   CLOUDY    27  16  63 NW16      30.02R WCI  15
KALAMAZOO      CLOUDY    30  20  66 N15       30.00S WCI  19
STURGIS*       CLOUDY    30  23  74 CALM      29.99S
THREE RIVERS*  CLOUDY    32  24  74 NW9       30.01R WCI  24

$$
OHZ001>008-015>018-024>025-270600-
NORTHWEST OHIO

CITY           SKY/WX    TMP DP  RH WIND       PRES   REMARKS
WAUSEON*       CLOUDY    34  23  64 NW12      29.96S WCI  25
DEFIANCE       CLOUDY    35  23  61 NW13G21   29.99R WCI  26
FINDLAY        CLOUDY    35  23  61 NW7       29.95R WCI  29
TOLEDO EXPRESS CLOUDY    34  21  59 W8        29.96R WCI  27
TOLEDO METCALF CLOUDY    35  23  61 NW9       29.96R WCI  28
LIMA           MOCLDY    33  24  69 NW7       29.96S WCI  27

$$
AND FOR LAKE MICHIGAN COASTAL AND OPEN LAKE BUOY OBSERVATIONS

STATION/POSITION TEMP    WIND        PRES    VSBY  WAVE
                 AIR SEA DIR/SP/G                  HT/PER
                 (F)     (DEG/KT/KT) (MB)    (MI)  (FT/S)
CALUMET HARBOR    33     330/ 13/ 21 1016.9F
MICHIGAN CITY     32     340/ 18/ 21   N/A
BURNS HARBOR      33     350/ 16/ 21 1018.3S
SAINT JOSEPH      30     340/ 15/ 20 1017.9S

$$
&&



USA.gov is the U.S. government's official web portal to all federal, state and local government web resources and services.